Temperature
-1 -1 -1 -1 -1 -1 -1 -1 -1 -2 -2 -3 -4 -4 -4 -5 -5 -5 -5 -5 -4 -5 -4 -4 -4 -4 -4 -4 -3 -3 -3 -3 -3 -3 -3 -3 -3 -3 -4 -4 -4 -4 -4 -4
-2 -1 -2 -2 -2 -2 -2 -3 -3 -3 -3 -5 -5 -5 -5 -6 -6 -6 -6 -6 -5 -5 -5 -5 -5 -5 -5 -4 -4 -4 -4 -4 -4 -4 -4 -4 -4 -4 -4 -4 -4 -4 -4 -4
-2 -2 -2 -3 -4 -4 -4 -5 -5 -4 -5 -6 -6 -6 -6 -6 -6 -6 -6 -7 -6 -6 -6 -6 -6 -6 -6 -5 -5 -5 -5 -5 -5 -5 -5 -5 -5 -5 -5 -5 -5 -5 -5 -5
-3 -3 -3 -4 -5 -5 -5 -6 -7 -6 -7 -7 -7 -7 -7 -6 -7 -7 -7 -7 -7 -7 -7 -6 -6 -6 -6 -6 -6 -6 -6 -5 -5 -5 -5 -5 -5 -5 -5 -5 -5 -5 -5 -6
-4 -4 -4 -4 -5 -6 -6 -6 -8 -8 -8 -8 -8 -7 -7 -7 -7 -8 -8 -8 -8 -8 -7 -7 -7 -7 -6 -6 -6 -6 -6 -6 -6 -6 -6 -6 -6 -6 -6 -6 -6 -6 -6 -6
-5 -4 -4 -5 -6 -6 -6 -6 -8 -8 -8 -8 -8 -8 -8 -8 -8 -9 -9 -9 -8 -8 -8 -8 -7 -7 -7 -7 -7 -7 -7 -7 -6 -6 -6 -6 -6 -6 -6 -7 -7 -7 -7 -7
-6 -6 -6 -7 -7 -6 -6 -7 -8 -9 -9 -9 -9 -9 -9 -9 -9 -9 -9 -9 -9 -9 -9 -8 -8 -8 -8 -8 -8 -8 -7 -7 -7 -7 -7 -7 -7 -7 -7 -7 -7 -7 -7 -7
-7 -6 -6 -8 -8 -8 -8 -8 -9 -9 -9 -9 -9 -10 -10 -10 -10 -10 -10 -10 -9 -9 -9 -9 -9 -9 -8 -8 -8 -8 -8 -8 -8 -8 -8 -8 -8 -8 -8 -8 -8 -8 -8 -8
-8 -7 -8 -8 -9 -9 -9 -9 -9 -10 -10 -10 -10 -10 -11 -11 -11 -11 -10 -10 -10 -10 -10 -9 -9 -9 -9 -9 -9 -9 -8 -8 -8 -8 -8 -8 -8 -8 -8 -8 -9 -9 -9 -9
-10 -9 -9 -9 -9 -9 -9 -10 -10 -10 -11 -11 -11 -11 -11 -12 -12 -11 -11 -11 -11 -10 -10 -10 -10 -10 -10 -10 -10 -9 -9 -9 -9 -9 -9 -9 -9 -9 -9 -9 -9 -9 -9 -9
-10 -11 -10 -10 -10 -10 -10 -11 -11 -11 -11 -11 -12 -12 -12 -12 -12 -12 -12 -12 -11 -11 -11 -10 -10 -10 -10 -10 -10 -10 -10 -10 -10 -10 -10 -10 -10 -9 -9 -9 -9 -9 -9 -9
-10 -10 -11 -10 -10 -11 -11 -11 -11 -12 -12 -12 -12 -12 -13 -13 -13 -13 -12 -12 -12 -12 -11 -11 -11 -11 -10 -11 -11 -11 -11 -10 -10 -10 -10 -10 -10 -10 -10 -10 -10 -10 -10 -10
-11 -11 -11 -11 -11 -11 -12 -12 -12 -12 -13 -13 -13 -13 -13 -13 -13 -13 -13 -12 -12 -12 -12 -12 -11 -11 -11 -11 -11 -11 -11 -11 -11 -11 -11 -11 -11 -11 -11 -10 -10 -10 -10 -10
-11 -11 -12 -12 -12 -12 -12 -12 -12 -13 -13 -13 -13 -13 -13 -13 -13 -13 -13 -13 -13 -13 -12 -12 -12 -12 -12 -12 -12 -12 -12 -11 -11 -11 -11 -11 -11 -11 -11 -11 -11 -11 -10 -11
-12 -12 -12 -12 -12 -12 -13 -13 -13 -13 -13 -13 -13 -13 -14 -14 -14 -14 -13 -13 -13 -13 -13 -13 -12 -12 -12 -12 -12 -12 -12 -12 -12 -12 -12 -12 -12 -12 -12 -12 -12 -11 -11 -11
-12 -12 -13 -13 -13 -13 -13 -13 -14 -14 -14 -14 -14 -14 -14 -14 -14 -14 -14 -14 -13 -13 -13 -13 -13 -13 -13 -13 -13 -13 -13 -12 -12 -12 -12 -12 -12 -12 -12 -12 -12 -12 -12 -11
-13 -13 -13 -14 -14 -14 -14 -14 -14 -14 -14 -14 -14 -14 -14 -14 -14 -14 -14 -14 -14 -14 -14 -14 -14 -13 -13 -13 -13 -13 -13 -13 -13 -13 -12 -12 -12 -12 -12 -12 -12 -12 -12 -12
-13 -14 -14 -14 -14 -14 -14 -14 -14 -14 -14 -14 -14 -14 -14 -14 -14 -14 -14 -14 -14 -14 -14 -14 -14 -14 -14 -14 -14 -14 -14 -13 -13 -13 -13 -13 -13 -13 -13 -13 -13 -12 -12 -12
-13 -14 -14 -14 -14 -14 -14 -14 -14 -14 -14 -15 -15 -15 -15 -15 -15 -15 -15 -14 -14 -14 -14 -14 -14 -14 -14 -14 -14 -14 -14 -14 -14 -14 -13 -13 -13 -13 -13 -13 -13 -13 -13 -13
-14 -14 -14 -14 -14 -14 -14 -14 -14 -14 -15 -15 -15 -15 -15 -15 -15 -15 -15 -15 -15 -15 -15 -15 -15 -15 -14 -14 -14 -14 -14 -14 -14 -14 -14 -14 -13 -13 -13 -13 -13 -13 -13 -13
-14 -14 -14 -14 -14 -14 -15 -15 -15 -15 -15 -15 -15 -15 -15 -15 -15 -15 -15 -15 -15 -15 -15 -15 -15 -15 -15 -15 -15 -15 -15 -15 -14 -14 -14 -14 -14 -14 -14 -14 -14 -13 -13 -13
-14 -14 -15 -15 -15 -15 -15 -15 -15 -15 -15 -15 -16 -16 -16 -16 -16 -16 -15 -16 -15 -15 -15 -15 -15 -15 -15 -15 -15 -15 -15 -15 -15 -15 -15 -14 -14 -14 -14 -14 -14 -14 -14 -14
-15 -15 -15 -15 -15 -15 -15 -15 -15 -16 -16 -16 -16 -16 -16 -16 -16 -16 -16 -16 -16 -16 -16 -15 -15 -16 -16 -15 -15 -15 -15 -15 -15 -15 -15 -15 -15 -15 -15 -14 -14 -14 -14 -14
-15 -15 -15 -15 -15 -15 -15 -15 -16 -16 -16 -16 -16 -16 -16 -16 -16 -16 -16 -16 -16 -16 -16 -16 -16 -16 -16 -16 -16 -16 -16 -16 -15 -15 -15 -15 -15 -15 -15 -15 -15 -15 -15 -15
-15 -16 -16 -16 -16 -16 -16 -16 -16 -16 -16 -16 -16 -17 -17 -17 -17 -17 -17 -16 -16 -16 -16 -16 -16 -16 -16 -16 -16 -16 -16 -16 -16 -16 -16 -16 -16 -16 -15 -15 -15 -15 -15 -15
-16 -16 -16 -16 -16 -16 -16 -17 -17 -17 -17 -17 -17 -17 -17 -17 -17 -17 -17 -17 -17 -17 -16 -16 -16 -16 -16 -16 -16 -16 -16 -16 -16 -16 -16 -16 -16 -16 -16 -16 -16 -16 -15 -15
-16 -16 -16 -16 -16 -17 -17 -17 -17 -17 -17 -17 -17 -17 -17 -17 -17 -17 -17 -17 -17 -17 -17 -17 -17 -17 -17 -17 -17 -17 -17 -17 -17 -17 -17 -17 -17 -16 -16 -16 -16 -16 -16 -16
Wind_Speed
5 5 3 3 4 3 3 4 5 6 5 5 7 7 6 6 6 7 7 7 7 5 5 4 4 4 2 1 0 1 2 3 3 2 2 2 2 3 3 3 3 4 3 3
4 2 2 4 4 4 3 3 4 5 6 5 6 5 6 6 7 7 7 8 7 6 5 5 5 4 3 3 1 1 2 2 2 2 2 2 2 2 2 3 3 3 4 4
4 4 4 4 3 1 1 2 1 3 5 7 7 8 7 6 6 7 8 8 7 6 5 5 5 4 3 3 2 0 1 1 1 2 2 2 2 2 3 3 3 3 4 4
2 3 3 3 2 2 1 2 3 3 6 7 7 8 5 4 5 7 8 7 7 6 6 5 5 4 3 2 2 1 0 1 1 1 2 2 2 2 3 2 3 3 4 4
1 2 5 2 3 4 2 1 4 6 9 9 9 5 3 5 6 6 6 7 6 6 5 5 5 4 3 2 2 2 1 1 1 2 2 2 3 3 3 2 3 3 3 3
1 2 4 3 5 6 1 2 4 7 9 9 8 6 5 8 8 8 7 6 6 5 5 5 5 4 3 3 2 3 3 3 2 2 3 3 4 3 3 3 3 3 3 3
2 4 4 3 7 4 1 5 7 7 8 7 5 5 8 9 8 7 7 7 6 5 5 5 5 4 3 3 3 4 3 3 2 2 3 3 3 3 3 3 2 2 3 3
1 3 4 3 4 1 4 5 5 6 7 7 7 8 8 8 8 7 7 7 7 6 6 5 5 4 4 4 4 3 3 3 3 3 3 2 2 3 3 3 3 3 3 3
4 4 2 1 0 2 3 5 6 6 7 8 8 7 8 8 7 7 7 7 6 6 6 6 5 4 4 5 4 4 3 3 3 3 2 2 3 3 3 3 3 3 3 3
2 3 3 3 2 4 4 5 6 6 7 7 7 8 7 7 7 7 7 7 7 6 7 7 6 5 4 5 4 3 3 3 3 2 2 2 3 3 3 4 4 4 4 4
3 4 5 3 4 5 5 6 6 6 6 6 6 7 7 7 7 7 8 7 7 6 7 8 7 6 6 5 3 3 3 3 3 3 3 3 3 3 4 5 6 5 5 4
4 3 4 6 5 5 5 6 7 7 7 6 5 6 7 7 7 7 7 7 7 7 7 7 7 7 6 5 3 3 4 3 3 2 2 2 3 3 5 5 7 8 7 6
3 4 4 6 5 5 5 6 7 6 6 7 6 6 6 6 6 7 7 7 7 7 7 7 7 7 7 5 5 4 4 4 3 3 3 3 3 3 3 4 6 7 7 8
3 3 4 4 5 6 6 6 6 6 6 6 6 6 6 6 7 7 8 8 7 7 7 7 7 7 6 5 5 5 4 5 4 3 3 3 4 3 3 4 4 4 6 8
4 4 4 6 6 6 6 6 6 7 7 7 6 6 6 7 8 8 8 8 7 7 7 7 7 7 6 5 5 5 4 3 3 3 3 3 3 3 4 4 4 4 3 5
6 5 5 5 6 6 6 6 6 7 7 7 7 7 8 7 8 8 8 7 6 7 8 7 7 7 6 5 5 4 4 6 5 3 3 3 3 3 4 4 4 4 4 4
3 5 5 7 7 7 7 6 6 7 7 8 8 8 8 7 7 8 8 7 6 7 7 7 7 7 6 5 4 4 4 5 6 4 3 3 3 4 4 4 4 4 4 6
4 5 5 6 6 7 7 7 7 7 7 8 8 7 7 7 8 9 9 8 7 7 7 7 7 7 6 6 4 4 4 4 4 4 4 4 4 3 3 4 4 5 4 5
4 5 5 5 5 5 6 7 7 7 7 7 7 7 7 7 7 8 8 7 7 8 7 7 10 7 6 7 6 3 3 4 4 4 4 5 5 3 3 4 4 4 4 4
5 5 5 5 5 5 6 6 6 6 7 6 6 7 8 8 7 7 7 6 6 6 7 8 8 6 6 6 7 3 3 3 4 4 4 4 4 4 4 4 4 4 4 4
5 5 6 6 6 6 6 6 6 7 7 6 6 7 8 8 7 6 6 7 7 7 7 10 6 6 6 6 6 3 3 3 3 4 4 4 4 4 3 3 3 3 3 3
5 5 6 6 6 7 6 6 6 6 7 6 6 7 7 7 7 7 6 5 7 11 8 5 5 7 8 7 2 2 3 3 3 3 3 3 3 4 3 3 3 3 3 3
5 5 6 6 7 7 7 6 6 6 6 6 7 7 7 7 6 6 7 6 6 10 7 5 8 11 10 5 2 3 3 3 3 3 4 4 4 4 4 4 4 3 3 3
5 5 6 6 5 5 6 7 6 6 6 6 6 7 6 6 5 5 5 10 12 11 6 9 12 11 9 4 3 3 3 3 4 4 4 4 4 4 4 4 4 4 4 5
5 5 5 5 5 5 6 7 6 6 6 6 6 6 5 4 5 6 6 7 10 10 6 9 12 11 7 4 4 4 4 4 4 4 3 3 3 4 4 4 4 4 4 4
5 5 5 5 5 5 5 5 5 6 6 6 6 5 5 5 5 5 5 6 7 9 6 5 6 7 5 5 5 5 4 5 5 5 4 4 4 4 4 4 5 5 4 5
5 4 4 5 5 5 5 5 5 6 6 6 7 6 6 6 6 6 6 6 6 6 5 5 5 5 5 5 5 5 5 4 4 4 4 4 4 4 4 5 5 5 6 6
Wind_Direction
260 278 273 282 294 292 227 232 236 264 275 310 320 317 328 342 348 1 2 359 357 355 354 359 355 351 342 320 210 165 165 175 189 189 183 178 181 182 186 193 198 203 202 210
278 284 324 312 322 298 278 276 265 285 287 330 327 339 345 346 348 350 345 346 349 352 355 352 344 343 347 332 312 174 177 190 188 178 186 198 202 191 186 194 200 200 208 211
276 310 340 306 306 284 305 357 300 276 302 332 336 336 332 332 338 334 335 340 342 342 339 335 330 329 329 326 320 243 185 187 183 184 201 212 215 202 201 204 203 211 216 215
291 358 271 257 21 37 104 38 15 343 333 336 321 312 308 331 337 331 334 335 334 334 334 332 331 331 331 335 345 336 246 228 216 203 217 221 213 218 220 212 210 217 226 229
194 265 272 306 6 360 314 314 17 350 337 336 332 317 315 353 348 328 324 323 323 325 323 328 332 330 333 338 346 346 316 284 262 232 224 223 229 232 226 220 221 222 228 228
175 231 254 295 326 324 290 273 3 349 335 334 342 334 314 336 335 330 328 326 326 326 330 335 330 332 335 328 330 316 300 284 267 246 229 229 233 233 230 225 227 238 249 240
217 236 262 307 320 347 86 296 324 325 322 322 310 279 296 314 320 324 325 326 329 330 331 325 324 326 318 311 304 301 302 300 287 262 246 234 227 228 225 228 229 229 243 252
201 225 262 344 22 55 276 309 314 312 311 306 297 296 303 311 318 326 328 331 334 333 327 323 323 322 314 309 306 308 307 303 292 274 261 250 221 225 220 213 217 226 233 249
206 221 272 1 257 296 314 306 307 309 307 305 302 304 311 316 320 324 327 328 329 327 324 323 321 317 305 308 313 314 309 299 291 286 275 260 228 218 217 213 218 228 231 241
271 271 292 294 321 330 324 308 309 311 310 311 305 307 312 317 321 324 326 327 326 325 324 323 322 318 303 304 310 310 305 299 291 281 276 264 251 230 223 224 224 228 232 237
271 296 321 304 310 316 323 321 319 318 316 312 309 309 312 315 317 319 321 322 323 321 318 317 319 317 315 308 305 304 300 296 294 283 268 265 260 242 239 231 226 227 228 228
251 271 274 286 303 320 321 319 318 318 318 318 311 306 311 311 312 313 315 317 319 319 318 316 318 318 317 310 298 291 298 299 290 282 275 274 275 279 265 257 254 252 251 249
273 298 287 290 306 318 314 313 316 313 309 312 315 309 310 309 312 314 315 314 314 313 313 313 315 314 315 312 307 290 281 284 283 280 273 271 268 266 277 279 267 263 262 262
316 333 310 310 308 317 317 319 321 321 318 312 311 311 310 310 312 314 313 312 311 311 309 308 309 308 309 309 307 299 288 283 282 272 264 260 260 259 258 263 270 271 271 268
320 320 294 303 315 325 327 328 329 327 327 326 322 316 313 312 312 311 311 314 316 314 311 310 308 308 310 308 309 302 296 287 278 271 266 260 260 258 256 258 260 269 279 276
314 322 319 317 318 323 327 325 320 318 321 321 321 319 314 310 308 310 313 318 317 314 313 312 309 309 311 312 313 307 298 300 303 284 272 268 263 259 258 256 256 258 261 267
327 321 317 316 315 315 313 309 305 306 312 315 315 316 318 319 320 320 321 321 314 307 306 309 310 313 315 312 306 301 300 302 310 307 291 281 271 262 258 256 255 258 261 263
270 275 280 288 296 303 308 311 309 309 308 309 313 316 317 318 316 316 318 320 321 319 317 317 314 317 318 314 306 300 299 301 301 294 292 287 278 264 256 255 256 260 267 270
301 298 296 297 296 296 300 304 307 308 308 311 313 312 311 309 308 310 315 319 320 318 317 314 322 328 317 313 315 297 298 300 300 298 297 296 302 286 270 263 261 260 263 266
314 313 310 310 311 307 304 305 307 309 310 311 312 314 315 315 315 315 315 312 305 300 304 312 319 317 310 306 313 301 298 297 298 300 301 298 292 288 283 275 268 265 263 262
311 311 311 312 312 311 307 306 307 307 311 313 312 311 310 312 315 315 314 315 317 316 314 320 323 313 309 310 315 310 304 302 301 298 297 295 295 292 291 292 289 283 279 276
305 305 305 307 309 310 311 308 304 305 309 313 312 310 311 312 316 315 305 300 308 319 324 316 313 316 324 329 332 324 311 303 300 298 297 296 295 294 292 292 291 293 293 288
294 296 301 302 301 303 308 309 304 303 306 308 311 311 309 307 310 312 313 315 315 320 326 320 324 328 334 346 340 320 311 307 303 299 296 295 293 291 288 287 286 286 285 285
294 297 299 301 303 307 310 311 309 306 303 301 302 303 306 310 310 306 302 313 324 325 326 325 331 334 340 347 329 319 312 308 303 298 297 295 295 294 291 288 285 284 281 281
295 296 299 306 308 305 305 309 311 311 311 310 309 310 308 303 300 307 311 314 321 327 326 326 331 335 339 327 322 316 312 307 304 306 305 303 299 296 292 288 285 283 281 279
296 297 295 292 293 300 306 310 311 313 315 314 313 315 317 314 309 308 311 313 314 322 326 320 322 325 323 318 314 312 310 311 316 317 312 307 301 297 294 291 287 284 282 278
299 302 305 308 308 307 307 308 308 309 311 309 309 314 318 317 317 317 316 317 317 316 315 316 316 316 316 315 314 313 311 309 308 307 306 303 300 296 294 291 289 286 282 280
Height
1481 1478 1477 1477 1476 1476 1476 1476 1476 1473 1473 1474 1474 1472 1469 1467 1464 1461 1458 1456 1454 1452 1451 1450 1449 1448 1447 1447 1447 1447 1447 1448 1448 1450 1451 1452 1454 1455 1457 1459 1460 1461 1462 1463
1481 1478 1478 1478 1478 1477 1476 1477 1477 1475 1475 1477 1475 1472 1470 1468 1465 1462 1459 1457 1455 1453 1451 1449 1448 1446 1446 1445 1445 1445 1444 1445 1445 1446 1447 1449 1450 1451 1453 1454 1455 1456 1457 1458
1481 1479 1478 1481 1481 1480 1480 1481 1481 1479 1480 1478 1475 1473 1470 1468 1465 1462 1460 1457 1455 1452 1450 1448 1447 1445 1444 1444 1443 1442 1442 1442 1442 1443 1444 1445 1446 1447 1448 1449 1450 1451 1452 1453
1486 1484 1487 1485 1483 1482 1483 1485 1484 1482 1481 1479 1476 1473 1470 1467 1465 1462 1459 1457 1454 1451 1449 1447 1446 1444 1443 1442 1441 1440 1439 1439 1440 1440 1441 1442 1442 1443 1444 1445 1446 1447 1447 1448
1489 1490 1486 1484 1485 1485 1484 1484 1486 1484 1481 1478 1474 1470 1467 1466 1464 1462 1459 1456 1453 1450 1448 1446 1444 1443 1441 1440 1439 1438 1437 1437 1437 1437 1437 1438 1439 1439 1440 1441 1442 1442 1443 1444
1490 1489 1487 1487 1487 1484 1485 1484 1485 1484 1481 1479 1475 1473 1469 1466 1463 1460 1458 1454 1451 1448 1446 1444 1442 1441 1439 1438 1436 1435 1435 1435 1435 1435 1434 1435 1435 1436 1436 1437 1438 1439 1439 1440
1493 1493 1489 1491 1486 1483 1488 1487 1485 1483 1481 1479 1477 1475 1470 1465 1462 1458 1456 1453 1450 1447 1444 1442 1441 1439 1437 1436 1434 1434 1433 1432 1432 1431 1431 1431 1432 1432 1433 1433 1434 1435 1435 1436
1495 1494 1493 1490 1488 1490 1490 1486 1484 1481 1479 1477 1473 1470 1467 1463 1459 1455 1453 1450 1448 1445 1442 1441 1439 1437 1435 1433 1432 1431 1430 1429 1428 1428 1428 1428 1428 1429 1429 1430 1430 1431 1431 1432
1495 1494 1490 1489 1488 1488 1487 1484 1482 1479 1477 1474 1470 1467 1463 1460 1457 1454 1451 1448 1446 1443 1440 1439 1437 1435 1432 1430 1429 1427 1426 1425 1425 1425 1425 1425 1425 1425 1425 1426 1426 1427 1427 1427
1494 1490 1489 1488 1487 1486 1484 1482 1480 1477 1474 1471 1467 1464 1461 1458 1454 1451 1448 1446 1443 1441 1438 1436 1434 1432 1430 1428 1426 1425 1423 1423 1422 1421 1421 1421 1421 1421 1421 1422 1422 1422 1423 1423
1493 1490 1487 1485 1485 1484 1482 1479 1477 1474 1471 1468 1465 1462 1459 1455 1452 1449 1446 1444 1441 1439 1436 1433 1432 1430 1427 1426 1424 1422 1421 1420 1419 1418 1418 1418 1418 1418 1418 1418 1419 1419 1419 1419
1492 1489 1488 1485 1483 1481 1479 1476 1474 1471 1468 1465 1463 1459 1456 1453 1449 1447 1444 1441 1438 1436 1433 1431 1429 1426 1425 1423 1421 1419 1418 1417 1416 1415 1415 1414 1414 1414 1414 1415 1415 1416 1416 1416
1489 1486 1485 1483 1481 1479 1476 1474 1471 1468 1465 1462 1459 1456 1453 1450 1447 1444 1441 1438 1435 1433 1430 1428 1426 1423 1422 1420 1418 1417 1415 1414 1413 1412 1412 1411 1411 1410 1410 1411 1411 1412 1412 1412
1487 1485 1482 1480 1479 1476 1474 1471 1468 1465 1462 1460 1457 1453 1450 1447 1444 1441 1438 1436 1433 1430 1428 1425 1423 1420 1419 1417 1415 1414 1412 1411 1410 1409 1409 1408 1408 1407 1407 1406 1406 1406 1407 1407
1484 1483 1481 1479 1476 1474 1471 1468 1465 1462 1459 1456 1454 1451 1448 1445 1442 1439 1436 1433 1430 1427 1425 1422 1420 1418 1416 1414 1412 1411 1410 1408 1407 1406 1406 1405 1405 1404 1404 1403 1403 1402 1402 1403
1482 1480 1478 1476 1473 1471 1468 1465 1463 1459 1457 1454 1451 1448 1445 1442 1439 1436 1433 1430 1428 1424 1422 1419 1417 1415 1413 1411 1409 1408 1407 1406 1404 1403 1402 1402 1401 1401 1400 1399 1399 1399 1398 1399
1479 1476 1474 1472 1470 1468 1466 1463 1461 1458 1455 1452 1449 1446 1443 1440 1436 1433 1431 1428 1425 1423 1420 1417 1414 1412 1410 1409 1407 1405 1404 1402 1401 1400 1399 1399 1398 1397 1397 1396 1395 1395 1395 1395
1477 1475 1473 1471 1468 1466 1463 1461 1458 1455 1452 1450 1447 1444 1441 1437 1434 1431 1428 1425 1423 1420 1418 1415 1412 1410 1408 1406 1405 1403 1401 1400 1399 1397 1396 1396 1395 1394 1393 1392 1392 1391 1391 1391
1474 1472 1470 1468 1466 1463 1461 1458 1455 1453 1450 1447 1444 1441 1438 1435 1432 1429 1426 1423 1420 1417 1415 1413 1410 1408 1406 1404 1403 1401 1399 1398 1396 1395 1394 1393 1392 1391 1390 1389 1388 1388 1387 1387
1471 1469 1467 1465 1463 1460 1458 1455 1452 1450 1447 1444 1441 1438 1435 1433 1430 1427 1424 1421 1419 1416 1413 1411 1408 1406 1404 1402 1400 1398 1397 1395 1393 1392 1391 1390 1389 1387 1386 1386 1385 1384 1384 1383
1468 1466 1464 1462 1460 1458 1455 1452 1450 1447 1444 1442 1439 1436 1433 1430 1428 1425 1421 1418 1416 1414 1411 1409 1406 1404 1402 1400 1398 1396 1394 1392 1391 1390 1388 1387 1385 1384 1383 1382 1381 1381 1380 1379
1465 1463 1461 1459 1457 1454 1452 1450 1447 1444 1441 1439 1436 1433 1430 1427 1425 1422 1420 1417 1414 1411 1409 1406 1404 1402 1400 1398 1395 1393 1391 1390 1388 1387 1385 1384 1382 1381 1380 1379 1378 1377 1376 1376
1463 1461 1458 1456 1454 1451 1449 1447 1444 1442 1439 1436 1433 1431 1428 1425 1422 1419 1416 1414 1411 1409 1407 1404 1402 1400 1398 1395 1393 1391 1389 1387 1385 1384 1382 1381 1379 1378 1377 1376 1375 1374 1373 1372
1459 1457 1455 1453 1451 1448 1446 1443 1441 1439 1436 1433 1431 1428 1425 1422 1420 1418 1415 1412 1409 1407 1404 1402 1399 1397 1395 1392 1390 1388 1386 1384 1382 1380 1379 1378 1376 1375 1374 1373 1371 1370 1369 1368
1456 1454 1452 1450 1447 1445 1443 1441 1438 1436 1433 1430 1428 1425 1423 1420 1417 1415 1412 1409 1407 1404 1401 1399 1397 1394 1392 1390 1387 1385 1383 1381 1379 1377 1375 1374 1373 1371 1370 1369 1368 1367 1366 1365
1453 1451 1449 1447 1445 1443 1440 1438 1435 1433 1430 1427 1425 1422 1420 1417 1415 1412 1409 1407 1404 1402 1399 1396 1394 1392 1389 1387 1385 1382 1380 1378 1376 1374 1372 1371 1369 1368 1367 1365 1364 1363 1362 1361
1450 1448 1446 1444 1442 1440 1437 1435 1433 1430 1427 1424 1422 1419 1417 1414 1412 1409 1406 1404 1401 1399 1396 1394 1391 1389 1386 1384 1382 1379 1377 1375 1373 1371 1369 1367 1366 1365 1363 1362 1361 1360 1358 1357